Location: Newark
(48.8604°N, 2.3376°E)
Time: 13:58:02
(UTC+00:00)

N. Korean satellite - Pass Details

Date: 30 September 2021
Orbit: 450 x 495 km, 97.3° (Epoch: 19 October)

Event Time Altitude Azimuth Distance (km) Brightness Sun altitude
Rises 04:17:45 0° 27° (NNE) 2,545 10.8 -15.7°
Reaches altitude 10° 04:20:16 10° 46° (NE) 1,669 10.2 -15.3°
Maximum altitude 04:22:53 19° 93° (E) 1,217 9.6 -14.9°
Drops below altitude 10° 04:25:31 10° 140° (SE) 1,675 9.7 -14.4°
Sets 04:28:03 0° 158° (SSE) 2,557 10.4 -14.0°
